LKKB Weather Reports


time (UTC)temp
C
wind
direction
speed
KPH
gust
KPH
rain 1hr
cm
rain 24hr
cm
rain mn
cm
humidity
%
barometer
mb
20260904173103 27 250 22.5 0.0 0.00 0.00 0.00 47 1011.0
20260904171911 27 250 22.5 0.0 0.00 0.00 0.00 42
20260904163103 27 230 25.7 0.0 0.00 0.00 0.00 45 1010.0
20260904162157 27 230 25.7 0.0 0.00 0.00 0.00 42
20260904153103 27 230 27.4 0.0 0.00 0.00 0.00 48 1011.0
20260904151929 27 220 32.2 0.0 0.00 0.00 0.00 45
20260904143102 27 220 29.0 0.0 0.00 0.00 0.00 51 1011.0
20260904141911 27 240 29.0 0.0 0.00 0.00 0.00 47
20260904133102 27 250 29.0 0.0 0.00 0.00 0.00 51 1012.0
20260904132129 27 250 29.0 46.7 0.00 0.00 0.00 47
20260904130211 27 250 32.2 0.0 0.00 0.00 0.00 47 1013.0
20260904123102 27 230 29.0 48.3 0.00 0.00 0.00 51 1013.0
20260904121855 25 240 29.0 0.0 0.00 0.00 0.00 53
20260904120104 25 250 32.2 0.0 0.00 0.00 0.00 57 1014.0
20260904113102 25 240 27.4 0.0 0.00 0.00 0.00 57 1014.0
20260904111856 25 240 35.4 0.0 0.00 0.00 0.00 53
20260904103103 23 240 35.4 0.0 0.00 0.00 0.00 60 1015.0
20260904102312 23 250 35.4 0.0 0.00 0.00 0.00 57
20260904100103 23 250 35.4 0.0 0.00 0.00 0.00 60 1015.0
20260904093103 23 220 25.7 0.0 0.00 0.00 0.00 60 1016.0
20260904091912 22 230 29.0 0.0 0.00 0.00 0.00 60
20260904090103 22 230 25.7 0.0 0.00 0.00 0.00 64 1016.0
20260904083103 22 230 24.1 0.0 0.00 0.00 0.00 68 1016.0
20260904081911 21 230 19.3 0.0 0.00 0.00 0.00 68
20260904073102 20 210 19.3 0.0 0.00 0.00 0.00 72 1017.0
20260904072112 20 220 22.5 0.0 0.00 0.00 0.00 68
20260904063102 18 210 20.9 0.0 0.00 0.00 0.00 72 1017.0
20260904061856 17 220 19.3 0.0 0.00 0.00 0.00 77
20260904060104 17 220 16.1 0.0 0.00 0.00 0.00 82 1017.0
20260904054302 17 220 20.9 0.0 0.00 0.00 0.00 77 1017.0
20260904053103 17 210 19.3 0.0 0.00 0.00 0.00 77 1017.0
20260904051856 17 210 14.5 0.0 0.00 0.00 0.00 72
20260904043102 17 210 14.5 0.0 0.00 0.00 0.00 82 1017.0
20260904042257 17 200 14.5 0.0 0.00 0.00 0.00 77
20260904040103 17 200 14.5 0.0 0.00 0.00 0.00 82 1017.0
20260904033102 17 200 14.5 0.0 0.00 0.00 0.00 82 1017.0
20260904030103 17 210 14.5 0.0 0.00 0.00 0.00 77 1018.0
20260904023103 17 210 12.9 0.0 0.00 0.00 0.00 82 1018.0
20260904021856 17 210 14.5 0.0 0.00 0.00 0.00 77
20260904013103 17 230 14.5 0.0 0.00 0.00 0.00 77 1018.0
20260904012156 17 230 14.5 0.0 0.00 0.00 0.00 72
20260904010104 17 230 12.9 0.0 0.00 0.00 0.00 77 1018.0
20260904003103 17 210 12.9 0.0 0.00 0.00 0.00 77 1018.0
20260904001856 17 210 19.3 0.0 0.00 0.00 0.00 77
20260904000103 17 210 19.3 0.0 0.00 0.00 0.00 77 1018.0
20260903233103 17 210 16.1 0.0 0.00 0.00 0.00 77 1019.0
20260903231856 17 210 19.3 0.0 0.00 0.00 0.00 77
20260903223102 17 210 16.1 0.0 0.00 0.00 0.00 77 1018.0
20260903222257 18 220 19.3 0.0 0.00 0.00 0.00 68
20260903213102 17 230 16.1 0.0 0.00 0.00 0.00 77 1019.0
20260903211857 18 230 19.3 0.0 0.00 0.00 0.00 68
20260903203103 17 220 16.1 0.0 0.00 0.00 0.00 77 1019.0
20260903201857 17 210 19.3 0.0 0.00 0.00 0.00 72
20260903193103 17 230 16.1 0.0 0.00 0.00 0.00 72 1019.0
20260903192056 18 240 19.3 0.0 0.00 0.00 0.00 63
20260903190103 18 240 16.1 0.0 0.00 0.00 0.00 68 1019.0
20260903183104 18 250 24.1 0.0 0.00 0.00 0.00 68 1019.0
20260903181856 20 260 25.7 0.0 0.00 0.00 0.00 60